{"data":{"norad_id":58863,"intl_designator":"2024-019L","name":"STARLINK-31149","alt_names":[],"object_type":"PAYLOAD","status":"ACTIVE","operator":null,"country":"US","launch_date":"2024-01-29","launch_site_code":"AFETR","launch_vehicle":null,"mission":null,"orbit_class":"UNKNOWN","rcs_meters":null,"size_class":null,"mass_kg":null,"dimensions":null,"purposes":["comms"],"wikipedia_slug":null,"has_3d_model":false,"image_url":null,"decayed_at":null,"tle_current":{"epoch":"2026-09-20T07:40:33.843360Z","epoch_age_seconds":168182,"freshness":"FRESH","line1":"1 58863U 24019L   26263.31983615 -.00000127  00000+0  49116-5 0  9997","line2":"2 58863  43.0009 229.3216 0001170 266.0577  94.0141 15.27584065148853","mean_motion":15.27584065,"eccentricity":0.000117,"inclination_deg":43.0009,"raan_deg":229.3216,"arg_perigee_deg":266.0577,"mean_anomaly_deg":94.0141,"bstar":4.9116e-6,"rev_number":14885,"period_min":94.266497863736,"perigee_km":482.23416664516,"apogee_km":483.83968134338,"semimajor_km":6861.1739239943,"source":"CELESTRAK","updated_at":"2026-09-21T09:00:33.988973Z"}}}